N8GD Weather Reports


Display with metric or nautical units.
time (UTC)temp
F
wind
direction
speed
MPH
gust
MPH
rain 1hr
in
rain 24hr
in
rain mn
in
humidity
%
barometer
mb
20190917040827 66 40 0.0 0.0 0.00 0.01 0.00 91 1017.1
20190917040710 66 40 0.0 0.0 0.00 0.01 0.00 91 1017.1
20190917040621 66 40 0.0 0.0 0.00 0.01 0.00 91 1017.1
20190917035210 67 34 0.0 0.0 0.00 0.01 0.01 90 1017.0
20190917033710 67 34 0.0 0.0 0.00 0.01 0.01 89 1017.0
20190917033621 68 34 0.0 0.0 0.00 0.01 0.01 90 1017.0
20190917032438 68 34 0.0 4.0 0.00 0.01 0.01 89 1016.8
20190917032211 68 34 0.0 4.0 0.00 0.01 0.01 89 1016.8
20190917032113 68 34 0.0 4.0 0.00 0.01 0.01 89 1016.8
20190917030710 68 32 0.0 6.0 0.00 0.01 0.01 88 1016.8
20190917030613 68 29 0.0 6.0 0.00 0.01 0.01 88 1016.8
20190917025342 69 47 4.0 8.0 0.00 0.01 0.01 88 1016.6
20190917025211 69 47 4.0 8.0 0.00 0.01 0.01 88 1016.6
20190917025113 69 47 4.0 8.0 0.00 0.01 0.01 88 1016.6
20190917023711 69 352 3.0 8.0 0.00 0.01 0.01 87 1016.6
20190917022210 70 37 4.0 7.0 0.00 0.01 0.01 86 1016.6
20190917020710 70 14 3.0 8.0 0.00 0.01 0.01 85 1016.6
20190917015210 71 27 4.0 9.0 0.00 0.01 0.01 84 1016.5
20190917013712 71 59 5.0 10.0 0.00 0.01 0.01 82 1016.5
20190917012211 72 34 3.0 11.0 0.00 0.01 0.01 80 1016.3
20190917010711 73 46 4.0 11.0 0.00 0.01 0.01 79 1016.1
20190917005211 73 42 4.0 5.0 0.00 0.01 0.01 78 1015.9
20190917003711 73 48 0.0 7.0 0.00 0.01 0.01 78 1015.7
20190917002211 73 38 0.0 0.0 0.00 0.01 0.01 78 1015.5
20190917000711 74 46 0.0 0.0 0.00 0.01 0.01 78 1015.5
20190916235211 75 25 0.0 0.0 0.00 0.01 0.01 76 1015.5
20190916233711 76 22 0.0 0.0 0.00 0.01 0.01 74 1015.4
20190916232211 77 27 0.0 0.0 0.00 0.01 0.01 71 1015.4
20190916230711 78 29 0.0 0.0 0.00 0.01 0.01 69 1015.4
20190916225210 79 30 0.0 7.0 0.00 0.01 0.01 69 1015.4
20190916223711 80 28 2.0 5.0 0.00 0.01 0.01 67 1015.1
20190916222210 80 31 0.0 8.0 0.00 0.01 0.01 65 1015.0
20190916220710 81 359 2.0 8.0 0.00 0.01 0.01 64 1014.9
20190916215210 82 23 0.0 8.0 0.00 0.01 0.01 63 1014.9
20190916213710 82 8 2.0 5.0 0.00 0.01 0.01 62 1014.9
20190916212210 82 1 0.0 8.0 0.00 0.01 0.01 63 1014.9
20190916210710 82 357 3.0 9.0 0.00 0.01 0.01 62 1014.9
20190916205210 82 289 0.0 2.0 0.00 0.01 0.01 62 1015.0
20190916203710 82 265 0.0 7.0 0.00 0.01 0.01 64 1015.0
20190916202210 83 6 0.0 8.0 0.00 0.01 0.01 63 1015.0
20190916200712 82 352 0.0 7.0 0.00 0.01 0.01 63 1015.0
20190916195212 84 265 0.0 8.0 0.00 0.01 0.01 60 1015.1
20190916193711 84 344 4.0 7.0 0.00 0.01 0.01 59 1015.2
20190916192211 84 320 0.0 5.0 0.00 0.01 0.01 60 1015.4
20190916190711 82 294 0.0 6.0 0.00 0.01 0.01 64 1015.5
20190916185211 83 237 0.0 4.0 0.00 0.01 0.01 61 1015.6
20190916183711 82 223 0.0 6.0 0.00 0.01 0.01 63 1015.7
20190916182211 82 285 2.0 7.0 0.00 0.01 0.01 63 1016.0
20190916180711 82 182 3.0 5.0 0.00 0.01 0.01 61 1016.0
20190916175211 81 236 0.0 5.0 0.00 0.01 0.01 61 1016.2
20190916173711 82 234 0.0 2.0 0.00 0.01 0.01 63 1016.3
20190916172211 81 270 0.0 5.0 0.00 0.01 0.01 61 1016.4
20190916170711 79 248 0.0 0.0 0.00 0.01 0.01 62 1016.6
20190916165211 78 270 0.0 3.0 0.00 0.01 0.01 64 1016.7
20190916163710 79 289 0.0 5.0 0.00 0.01 0.01 62 1016.6
20190916162210 79 231 2.0 5.0 0.00 0.01 0.01 62 1016.7
20190916160710 79 246 0.0 6.0 0.00 0.01 0.01 63 1016.7
20190916155210 78 208 0.0 1.0 0.00 0.01 0.01 66 1016.8
20190916153710 76 146 0.0 0.0 0.00 0.01 0.01 70 1017.0
20190916152210 75 227 0.0 3.0 0.00 0.01 0.01 71 1017.2
20190916150710 74 239 0.0 0.0 0.00 0.01 0.01 76 1017.3
20190916145210 73 239 0.0 1.0 0.00 0.01 0.01 78 1017.5
20190916143710 72 239 0.0 3.0 0.00 0.01 0.01 77 1017.7
20190916142212 72 248 0.0 0.0 0.00 0.01 0.01 77 1017.7
20190916140712 71 218 0.0 0.0 0.00 0.01 0.01 83 1017.8
20190916135211 69 210 0.0 3.0 0.00 0.01 0.01 85 1017.8
20190916133711 68 214 0.0 2.0 0.00 0.01 0.01 90 1017.8
20190916132211 67 181 1.0 0.0 0.00 0.01 0.01 91 1017.8
20190916130711 66 182 0.0 0.0 0.00 0.02 0.01 94 1017.9
20190916125211 65 140 0.0 0.0 0.00 0.02 0.01 96 1017.9
20190916123711 65 98 0.0 0.0 0.00 0.02 0.01 96 1017.9
20190916122211 65 78 0.0 0.0 0.00 0.02 0.01 97 1017.8
20190916120711 65 75 0.0 0.0 0.00 0.02 0.01 97 1017.9
20190916115211 65 39 0.0 0.0 0.00 0.02 0.01 97 1017.9
20190916113711 64 39 0.0 0.0 0.00 0.02 0.01 96 1017.7
20190916112210 64 39 0.0 0.0 0.00 0.02 0.01 96 1017.6
20190916110710 64 39 0.0 0.0 0.00 0.02 0.01 96 1017.5
20190916105210 65 39 0.0 0.0 0.00 0.02 0.01 96 1017.5
20190916103710 65 39 0.0 0.0 0.00 0.02 0.01 96 1017.6
20190916102211 64 39 0.0 0.0 0.00 0.02 0.01 96 1017.5
20190916100710 64 39 0.0 0.0 0.00 0.02 0.01 96 1017.5
20190916095210 64 39 0.0 0.0 0.00 0.02 0.01 96 1017.6
20190916093710 64 39 0.0 0.0 0.00 0.02 0.01 96 1017.5
20190916092210 64 39 0.0 0.0 0.00 0.02 0.01 96 1017.6
20190916090710 64 39 0.0 0.0 0.00 0.02 0.01 96 1017.6
20190916085149 64 39 0.0 0.0 0.00 0.02 0.01 96 1017.7
20190916083651 64 39 0.0 0.0 0.00 0.02 0.01 96 1017.6
20190916082150 64 39 0.0 5.0 0.00 0.02 0.01 96 1017.7
20190916080650 64 38 0.0 0.0 0.00 0.02 0.01 96 1017.5
20190916075151 64 288 0.0 0.0 0.00 0.02 0.01 96 1017.3
20190916073650 64 288 0.0 0.0 0.00 0.02 0.01 96 1017.5
20190916072150 64 288 0.0 0.0 0.00 0.02 0.01 95 1017.5
20190916070650 64 288 0.0 0.0 0.00 0.02 0.01 95 1017.6
20190916065150 64 288 0.0 0.0 0.01 0.02 0.01 95 1017.6
20190916063650 64 288 0.0 0.0 0.01 0.02 0.01 95 1017.7
20190916062150 64 287 0.0 0.0 0.01 0.02 0.01 95 1018.1
20190916060650 64 287 0.0 0.0 0.01 0.02 0.01 94 1018.2
20190916055149 64 287 0.0 0.0 0.00 0.01 0.00 94 1018.2
20190916053649 64 287 0.0 0.0 0.00 0.01 0.00 94 1018.5
20190916052150 64 287 0.0 1.0 0.00 0.01 0.00 94 1018.7
20190916050650 63 163 0.0 0.0 0.00 0.01 0.00 94 1018.6
20190916045150 63 47 0.0 0.0 0.00 0.01 0.00 94 1018.2
20190916043650 62 47 0.0 0.0 0.00 0.01 0.00 94 1017.9
20190916042150 62 47 0.0 0.0 0.00 0.01 0.00 94 1018.0